Location: Béaulencourt
(50.0796°N, 2.8795°E)
Time: 19:59:37
(UTC+00:00)

Cosmos 1933 Rocket - Pass Details

Date: 20 January 2026
Orbit: 599 x 624 km, 82.5° (Epoch: 15 February)

Event Time Altitude Azimuth Distance (km) Brightness Sun altitude
Rises 06:28:11 0° 182° (S) 2,894 7.2 -10.9°
Reaches altitude 10° 06:30:25 10° 180° (S) 1,992 6.4 -10.5°
Maximum altitude 06:34:48 71° 97° (E) 663 3.9 -9.8°
Drops below altitude 10° 06:39:14 10° 14° (NNE) 2,004 6.1 -9.2°
Sets 06:41:29 0° 12° (NNE) 2,913 6.9 -8.8°
